Weather in Monte Gordo

Portugal     37°10′56″N   7°27′04″W
temp.,
°C
wind,
m/s
gust,
m/s
humid.,
%
clouds,
%
prec.,
mm/h
press.,
hPa
HPBL,
m
13 may, thu
thu1301:00+14nnw511685 0.0 1022337
04:00+12nnw511752 0.0 1021326
07:00+12nnw411830 0.0 1021382
10:00+19nnw67480 0.0 1021881
13:00+24nw56375 0.0 10201686
16:00+26nw563574 0.0 10172196
19:00+22nw910506 0.0 10181481
22:00+17nw51075100 0.0 1019429
14 may, fri
fri1401:00+15nnw512800 0.0 1019497
04:00+13nnw411890 0.0 1018376
07:00+12nnw4119318 0.0 1019397
10:00+19n69529 0.0 1020764
13:00+26n67253 0.0 10181362
16:00+28n56226 0.0 10161774
19:00+27n772717 0.0 10161621
22:00+20nnw51249100 0.0 1018298
15 may, sat
sat1501:00+17nnw61261100 0.0 1018274
04:00+16nnw6136697 0.0 1017290
07:00+15nnw5126945 0.0 1017239
10:00+23n793581 0.0 1018558
13:00+30n66215 0.0 10171295
16:00+32n55190 0.0 10151840
19:00+31nnw76270 0.0 10141744
22:00+22nnw715500 0.0 1016382
16 may, sun
sun1601:00+19nnw7146611 0.0 1016353
04:00+17nnw714743 0.0 1016302
07:00+16nnw613774 0.0 1015292
10:00+25n810400 0.0 1016652
13:00+31nnw77250 0.0 10161524
16:00+31nnw9823100 0.0 10141936
19:00+29nnw9826100 0.0 10141566
22:00+21nnw81464100 0.0 1017437
17 may, mon
mon1701:00+19nnw814755 0.0 1017454
04:00+16nnw816765 0.0 1017390
07:00+15nnw816603 0.0 1018397
10:00+22nnw91223100 0.0 1019743
13:00+28nnw781338 0.0 10191350
16:00+30nnw67139 0.0 10181717
19:00+27nnw7720100 0.0 10181508
22:00+21nnw7133472 0.0 1020388